This demonstration page uses our WeatherBlox Daily Observations layout. Learn more.

Left ArrowRight Arrow

Hourly Observations for May 21, 2017

Temp ( °F °C ) Dew Point ( °F °C ) Humidity (%) Winds ( mph kmh ) Pressure ( in mb ) Visibility ( mi km ) Precip ( " mm )
12:56 am 00:56 Cloudy 48 8.8 44 6.4 85 85 WNW 12 19 29.93 1014 10 16 0.00 0.00
12:57 am 00:57 Cloudy with Light Rain 48 9 43 6 82 82 WNW 13 20 29.93 1014 10 16 0.00 0.00
1:07 am 01:07 Cloudy with Light Rain 46 8 45 7 93 93 WNW 13 20 29.93 1014 10 16 0.00 0.00
1:15 am 01:15 Cloudy 46 8 43 6 87 87 W 13 20 29.93 1014 10 16 0.00 0.00
1:56 am 01:56 Cloudy 46 7.9 40 4.3 78 78 W 15 24 29.95 1014 10 16 0.00 0.03
2:56 am 02:56 Cloudy 45 7.1 38 3.2 76 76 W 14 22 29.97 1015 10 16 0.00 0.00
3:16 am 03:16 Cloudy 45 7 37 3 76 76 W 15 24 29.98 1015 10 16 0.00 0.00
3:56 am 03:56 Cloudy 45 7.1 38 3.2 76 76 W 9 15 29.99 1016 10 16 0.00 0.00
4:56 am 04:56 Cloudy 45 7.1 39 3.7 79 79 W 15 24 30.00 1016 10 16 0.00 0.00
5:56 am 05:56 Cloudy 44 6.8 38 3.2 78 78 W 8 13 30.02 1017 10 16 0.00 0.00
6:56 am 06:56 Cloudy 45 7.2 39 4 80 80 WSW 9 15 30.04 1017 10 16 0.00 0.00
7:56 am 07:56 Mostly Cloudy 46 7.8 40 4.2 78 78 W 12 19 30.05 1018 10 16 0.00 0.00
8:56 am 08:56 Cloudy 50 9.9 39 4.1 67 67 W 18 30 30.07 1018 10 16 0.00 0.00
9:56 am 09:56 Partly Cloudy 51 10.7 38 3.5 61 61 WNW 18 30 30.08 1019 10 16 0.00 0.00
10:56 am 10:56 Mostly Sunny 55 12.5 40 4.7 59 59 W 15 24 30.10 1019 10 16 0.00 0.00
10:59 am 10:59 Partly Cloudy 55 13 41 5 59 59 WSW 14 22 30.10 1019 10 16 0.00 0.00
11:56 am 11:56 Mostly Sunny 57 13.8 40 4.6 54 54 W 16 26 30.11 1020 10 16 0.00 0.00
12:56 pm 12:56 Mostly Sunny 59 15 42 5.5 53 53 W 21 33 30.09 1019 10 16 0.00 0.00
1:56 pm 13:56 Partly Cloudy 62 16.8 42 5.7 48 48 W 21 33 30.09 1019 10 16 0.00 0.00
2:56 pm 14:56 Mostly Sunny 64 17.9 42 5.8 45 45 W 15 24 30.08 1019 10 16 0.00 0.00
3:56 pm 15:56 Mostly Sunny 65 18.5 42 5.7 43 43 W 20 31 30.06 1018 10 16 0.00 0.00
6:56 pm 18:56 Sunny 66 18.9 40 4.6 39 39 WNW 13 20 30.05 1018 10 16 0.00 0.00
9:58 pm 21:58 Clear 55 13 45 7 67 67 SE 6 9 30.09 1019 10 16 0.00 0.00
10:58 pm 22:58 Clear 55 13 45 7 67 67 SSE 6 9 30.12 1020 10 16 0.00 0.00
11:56 pm 23:56 Clear 55 13 45 7 67 67 VRB 3 6 30.10 1019 10 16 0.00 0.00

Powered by AerisWeather